Regional Weather Roundup
Issued by NWS Charleston, SC

Current Version | Previous Version | Graphics & Text | Print | Product List | Glossary On
Versions: 1 2 3 4 5 6 7 8 9 10 11 12 13 14 15 16 17 18 19 20 21 22 23 24 25 26 27 28 29 30 31 32 33 34 35 36 37 38 39 40 41 42 43 44 45 46 47 48 49 50
000
ASUS42 KCHS 270213
RWRCHS

REGIONAL WEATHER ROUNDUP
NATIONAL WEATHER SERVICE CHARLESTON SC
1000 PM EDT TUE JUL 26 2016

NOTE: "FAIR" INDICATES FEW OR NO CLOUDS BELOW 12,000 FEET WITH NO
SIGNIFICANT WEATHER AND/OR OBSTRUCTIONS TO VISIBILITY.

NOT ALL STATIONS ARE QUALITY CONTROLLED. USE DATA WITH CAUTION...
ESPECIALLY DEWPOINT OBSERVATIONS.

SCZ027-030-031-034>040-042>050-270300-
...SOUTHEAST SOUTH CAROLINA...

CITY           SKY/WX    TMP DP  RH WIND       PRES   REMARKS
N CHARLESTON   PTCLDY    83  75  77 SW8       30.01R HX  90
WATERFRONT PRK   N/A     85  78  79 SW5       29.99R HX  97
MOUNT PLEASANT FAIR      82  77  83 S8        30.01S HX  91
JOHNS ISLAND   FAIR      84  79  84 S8        30.02R HX  96
PINOPOLIS        N/A     84  73  70 SW7       29.92R HX  91
MONCKS CORNER  FAIR      81  70  69 SW7       30.01R
SUMMERVILLE    FAIR      82  73  74 S5        30.02R
BEAUFORT MCAS  CLEAR     84  75  74 S8        30.02R HX  92
BEAUFORT ARPT  FAIR      84  75  74 SW7       30.02R HX  92
HILTON HEAD IS CLEAR     86  77  74 S9        30.04R HX  97
WALTERBORO     CLEAR     82  72  69 S5        30.03R
ALLENDALE      FAIR      84  75  74 S5        30.01R HX  92

...SOUTHERN MIDLANDS AND PEE DEE...

CITY           SKY/WX    TMP DP  RH WIND       PRES   REMARKS
GEORGETOWN     FAIR      81  75  83 S6        30.01R
KINGSTREE      FAIR      82  73  74 S3        29.99R
ORANGEBURG     CLEAR     82  73  74 S7        30.01R
BARNWELL       NOT AVBL
AIKEN          FAIR      82  68  61 S7        30.04R
MANNING        FAIR      86  73  66 S6        30.00R HX  93
COLUMBIA       CLEAR     89  67  47 SW9       29.98R HX  92
SUMTER         CLEAR     85  70  60 S5        29.96R
FLORENCE       CLEAR     85  74  69 S6        29.98R HX  92
MYRTLE BEACH   CLEAR     84  72  65 SW12      30.01R
N MYRTLE BEACH CLEAR     84  78  82 SW14      29.99R HX  95

$$

GAZ063-065-086>088-099>101-113>116-118-119-134>141-150-270300-
...SOUTHEAST GEORGIA...

CITY           SKY/WX    TMP DP  RH WIND       PRES   REMARKS
SAVANNAH ARPT  PTCLDY    84  74  71 S13       30.04R HX  91
HUNTER AAF     CLEAR     84  79  83 S6        30.02R HX  96
FORT STEWART   CLOUDY    83  75  78 S2        30.02R HX  90
STATESBORO     CLEAR     85  77  77 S7        30.03R HX  96
SYLVANIA       NOT AVBL
CLAXTON        FAIR      84  77  78 CALM      30.04R HX  94

...CSRA...CENTRAL AND FAR SOUTHEAST GEORGIA...

CITY           SKY/WX    TMP DP  RH WIND       PRES   REMARKS
THOMSON        NOT AVBL
AUGUSTA-BUSH   CLEAR     85  70  60 S6        29.99R
AUGUSTA-DANIEL CLEAR     89  70  53 SW6       30.01R HX  94
SWAINSBORO     FAIR      86  72  62 SW6       30.04R HX  92
VIDALIA        CLEAR     84  72  65 SW5       30.04R
EASTMAN        FAIR      83  61  46 SW3       30.06R
HAZLEHURST     FAIR      85  73  65 CALM      30.04R HX  92
ALMA           CLOUDY    83  73  72 S3        30.04R
WAYCROSS       CLOUDY    87  77  72 CALM      30.05R HX  98
JESUP          FAIR      82  77  83 SW3       30.05R HX  91
BAXLEY         CLOUDY    86  77  74 CALM      30.04R HX  97
BRUNSWICK      PTCLDY    86  79  79 CALM      30.06R HX  99
SAINT SIMONS   CLEAR     86  74  67 S9        30.05R HX  94

$$

SCZ027-028-034-036>038-045-046-048>050-GAZ119-141-270300-
...LAKE AND SUPPLEMENTAL COASTAL OBSERVATIONS...

STATION/POSITION TIME  TEMP    WIND        PRES    WAVE   SWELL
                       AIR SEA DIR/SP/G            HT/PER HT/PER/DIR
                 (UTC) (F)     (DEG/KT/KT) (MB)    (FT/S) (FT/S/D)
WINYAH BAY       0045   85     210/  9     1015.0
LAKE MURRAY      NOT AVBL
ACE BASIN NERRS  NOT AVBL
FORT PULASKI     0100   85 88                N/A
SAPELO ISLAND    0100   86     190/  9     1017.0R

$$

ANZ835-935-AMZ111-154-330-350-352-354-370-450-454-472-270300-
...C-MAN AND BUOY OBSERVATIONS...

STATION/POSITION TIME  TEMP    WIND        PRES    WAVE   SWELL
                       AIR SEA DIR/SP/G            HT/PER HT/PER/DIR
                 (UTC) (F)     (DEG/KT/KT) (MB)    (FT/S) (FT/S/D)
BUOY 41004       0150   85 86  210/ 16/ 17 1015.9R   3/ 4   2/150/ 8
BUOY 41008       0150   86 87  170/ 14/ 17 1017.4R   2/ 3   2/100/ 7
FOLLY BEACH CMAN 0200   85     220/ 16/ 18 1016.6R
CAPERS NEARSHORE 0108   84 84  230/ 16/ 19 1015.8R
FRIPP NEARSHORE  0108   86 87  210/ 16/ 19 1015.5R


STATION/POSITION TIME  TEMP    WIND        PRES    WAVE   SWELL
                       AIR SEA DIR/SP/G            HT/PER HT/PER/DIR
                 (UTC) (F)     (DEG/KT/KT) (MB)    (FT/S) (FT/S/D)
5E ST. MARYS GA  0101      86                N/A     3/ 4
FRYING PAN BUOY  0100   85 85  220/ 14/ 17 1015.6R
BUOY 41025       0150   85 84  230/ 17/ 21 1014.3F   4/ 5
CAPE LOOKOUT NC  0200   83     220/ 12/ 16 1014.8F
BUOY 41002       0150   84 84  230/ 10/ 10 1017.9R   2/ 7   2/130/ 7
BUOY 41010       0120   85 86  170/  6/ 10 1018.5R
ST AUGUSTINE FL  0200   84 87  180/ 14/ 16 1018.7R


$$




USA.gov is the U.S. government's official web portal to all federal, state and local government web resources and services.